Lid_Strength_Index
5 6 6 5 4 4 5 5 5 5 5 5 4 4 4 3 4 6 9 7 5 2 2 5 5 6 6 7 7 7 12 13 12 12 11 8 8 8 6 5 5 4 5 4 2
4 6 6 6 5 6 6 6 5 5 5 5 4 4 4 4 6 8 6 4 3 3 5 7 8 7 8 8 8 9 12 11 8 8 9 9 9 9 7 7 6 6 4 3 3
6 6 7 7 6 5 6 6 6 5 5 5 4 4 4 4 9 9 5 4 3 3 5 6 6 8 9 8 8 9 12 9 8 7 7 8 8 7 7 9 7 7 6 4 4
6 7 7 7 7 6 6 6 6 5 5 5 5 5 4 6 13 7 4 4 3 4 5 6 7 10 11 11 8 10 8 7 6 6 7 8 7 9 9 7 5 4 4 4 5
7 7 7 7 7 7 6 6 6 6 5 5 5 5 6 9 10 5 4 3 4 5 6 7 9 9 12 11 10 10 7 6 6 6 6 6 8 9 11 8 5 4 4 5 5
7 7 7 7 7 7 7 6 6 6 6 6 6 5 7 11 6 5 5 4 5 5 6 6 8 8 10 11 12 9 7 7 6 6 6 8 8 8 10 8 6 5 5 5 4
8 7 7 7 7 7 7 6 6 6 7 6 6 6 8 10 6 5 5 5 4 5 6 5 6 8 9 11 9 8 10 8 7 7 7 7 10 10 8 9 6 6 6 5 4
7 7 7 7 7 7 7 6 6 7 7 6 5 6 10 6 6 6 5 5 4 4 4 4 5 7 9 9 10 11 10 14 8 7 7 8 12 7 7 8 7 7 6 5 6
8 8 7 7 7 7 7 6 7 7 6 6 6 8 11 5 8 6 5 6 5 4 4 4 5 8 9 12 13 13 16 14 11 8 9 9 12 7 6 6 8 7 6 6 5
8 8 7 7 7 7 7 8 8 8 6 7 8 10 9 11 8 7 5 5 6 5 6 6 8 11 11 13 17 16 15 13 14 9 10 10 11 8 8 7 8 7 7 6 6
8 7 7 8 7 7 9 10 12 13 10 13 13 12 11 9 6 6 6 6 6 7 10 8 11 13 12 11 12 14 14 14 12 9 11 12 11 10 8 8 8 8 7 6 6
8 7 8 8 7 8 9 12 13 12 15 12 12 12 10 9 10 8 6 8 8 10 8 10 13 9 9 9 11 13 14 14 12 9 11 12 12 11 10 11 9 8 7 9 7
8 7 8 8 8 8 11 12 9 9 14 14 13 12 11 10 11 10 8 9 10 10 10 12 10 8 9 10 11 12 14 14 14 13 10 12 14 13 11 10 9 8 8 8 8
8 8 8 8 9 11 12 10 8 9 16 17 14 12 10 9 11 8 8 9 9 12 11 10 9 9 10 11 11 14 10 12 13 14 17 12 19 15 13 12 11 9 9 9 9
7 8 8 9 10 12 11 9 8 10 21 16 14 10 10 12 12 10 8 9 12 12 11 12 12 11 11 11 10 11 10 11 13 14 15 15 18 16 13 14 12 11 10 9 8
7 8 8 9 9 10 9 9 10 16 22 18 14 14 13 12 12 10 10 9 9 11 11 12 9 10 11 10 9 9 10 10 12 14 20 17 18 18 16 14 12 11 11 10 10
7 7 9 9 11 8 8 11 17 20 18 19 17 14 14 15 13 13 12 14 16 15 17 12 12 10 9 11 9 11 13 19 20 21 22 16 18 18 14 13 12 12 11 10 10
7 8 9 9 8 8 10 14 21 19 20 17 16 15 17 15 15 14 14 15 13 14 16 18 18 12 10 11 13 13 13 19 22 21 20 16 20 17 13 12 11 11 11 10 11
7 8 9 9 9 9 13 19 18 18 18 18 17 18 18 16 17 15 17 16 15 14 18 18 17 11 11 10 11 13 16 13 16 19 19 18 16 13 11 12 12 12 12 13 12
9 10 10 9 9 11 16 17 19 18 16 16 19 19 20 19 18 17 17 16 15 13 13 15 18 13 11 10 10 12 11 16 16 22 23 19 17 17 13 12 12 13 14 13 13
10 13 11 9 11 14 18 18 20 18 15 17 18 20 18 19 19 18 18 16 15 14 13 14 15 15 13 14 14 14 14 13 14 16 18 20 19 12 12 11 12 12 12 12 13
11 16 11 10 16 17 17 20 17 18 15 17 17 17 18 18 18 19 18 16 15 15 16 13 15 19 16 13 11 12 13 13 18 18 17 16 18 10 10 10 11 12 11 11 11
15 14 11 12 19 19 19 20 18 18 17 17 18 16 16 18 21 18 18 15 15 15 16 14 18 21 20 16 13 14 13 12 13 15 17 19 18 10 10 11 11 12 12 12 12
14 17 14 14 15 16 19 20 21 16 16 16 17 16 18 19 20 20 18 16 15 15 14 14 16 19 22 19 17 16 14 13 14 18 17 17 16 13 12 12 12 12 12 12 12
15 16 15 19 18 17 17 19 19 21 17 16 18 17 18 22 20 22 19 17 15 15 15 17 23 20 18 18 18 17 16 14 15 14 18 16 15 12 12 12 12 12 11 11 12
16 16 16 16 16 17 17 19 18 18 18 19 18 17 17 20 19 21 18 18 18 17 17 17 24 22 25 19 19 20 18 16 15 14 13 14 14 10 11 12 12 12 11 12 11
12 13 13 15 16 18 18 17 17 17 16 15 17 17 17 17 16 16 15 16 17 18 21 21 25 26 26 25 25 27 23 18 16 14 14 16 14 12 13 12 12 12 12 12 11